Back to catalog

STARLINK-37790

AliveCommunicationsSSO
NORAD 69312·PAYLOAD·🇺🇸 United States

Launched May 30, 2026 from Vandenberg Space Force Base

Loading…

Next Passes (next 24 hours)

TLE

FreshSource: CelesTrak SupGP

Epoch: Sep 14, 2026, 22:39 UTC

1 69312C 26119S   26257.94423611  .00036346  00000+0  11284-2 0  2578
2 69312  97.2829 282.7959 0001340  96.0444 285.5791 15.33417351    18

Track STARLINK-37790 in real time with AllMySat

Download on the App Store